When you browse on this site, cookies collect data to enhance your experience and personalize the content and advertising you see.
Visit our Privacy Policy to learn more. By continuing to use the site, you agree to this use of cookies and data.
  • In Romania
  • List of Countries
  • For 7 days
  • Water Temperature
  • Satellite Maps
  • Weather Map
  • Weather Widgets
  • user-avatar
    Login

    Hourly Weather Arriba

    Today, 18 February, Monday

    Time Temperature Precipitation Wind Pressure Humidity
    00:00 +12°C° 0 mm 5 mps 756 mmHg 83%
    01:00 +12°C° 0 mm 5 mps 756 mmHg 83%
    02:00 +10°C° 0 mm 5 mps 756 mmHg 83%
    03:00 +10°C° 0 mm 5 mps 755 mmHg 82%
    04:00 +10°C° 0.1 mm 5 mps 755 mmHg 82%
    05:00 +10°C° 0.1 mm 5 mps 755 mmHg 82%
    06:00 +10°C° 0 mm 5 mps 754 mmHg 80%
    07:00 +10°C° 0.3 mm 5 mps 754 mmHg 78%
    08:00 +10°C° 0.3 mm 5 mps 754 mmHg 75%
    09:00 +10°C° 0.3 mm 5 mps 754 mmHg 72%
    10:00 +12°C° 0.2 mm 5 mps 754 mmHg 71%
    11:00 +12°C° 0.2 mm 5 mps 754 mmHg 70%
    12:00 +13°C° 0 mm 5 mps 754 mmHg 65%
    13:00 +14°C° 0.2 mm 5 mps 754 mmHg 65%
    14:00 +15°C° 0.2 mm 5 mps 754 mmHg 64%
    15:00 +15°C° 0.2 mm 5 mps 754 mmHg 63%
    16:00 +15°C° 0.1 mm 4 mps 754 mmHg 67%
    17:00 +14°C° 0.1 mm 4 mps 754 mmHg 70%
    18:00 +14°C° 0.1 mm 3 mps 754 mmHg 73%
    19:00 +13°C° 0 mm 3 mps 755 mmHg 76%
    20:00 +13°C° 0 mm 2 mps 755 mmHg 79%
    21:00 +12°C° 0 mm 2 mps 756 mmHg 82%
    22:00 +12°C° 0 mm 2 mps 756 mmHg 83%
    23:00 +11°C° 0 mm 1 mps 756 mmHg 83%

    Tomorrow, 19 February, Tuesday

    Time Temperature Precipitation Wind Pressure Humidity
    00:00 +11°C° 0 mm 1 mps 757 mmHg 84%
    01:00 +11°C° 0 mm 1 mps 757 mmHg 82%
    02:00 +12°C° 0 mm 1 mps 757 mmHg 80%
    03:00 +12°C° 0 mm 1 mps 757 mmHg 78%
    04:00 +12°C° 0 mm 1 mps 757 mmHg 81%
    05:00 +11°C° 0 mm 1 mps 757 mmHg 83%
    06:00 +10°C° 0 mm 1 mps 757 mmHg 86%
    07:00 +11°C° 0 mm 1 mps 757 mmHg 82%
    08:00 +12°C° 0 mm 1 mps 757 mmHg 78%
    09:00 +13°C° 0 mm 1 mps 758 mmHg 74%
    10:00 +15°C° 0 mm 1 mps 758 mmHg 68%
    11:00 +16°C° 0 mm 0 mps 758 mmHg 62%
    12:00 +17°C° 0 mm 0 mps 758 mmHg 55%
    13:00 +20°C° 0 mm 1 mps 757 mmHg 54%
    14:00 +19°C° 0 mm 2 mps 757 mmHg 53%
    15:00 +19°C° 0 mm 2 mps 757 mmHg 52%
    16:00 +18°C° 0.1 mm 2 mps 757 mmHg 59%
    17:00 +17°C° 0.1 mm 2 mps 757 mmHg 66%
    18:00 +16°C° 0.1 mm 3 mps 757 mmHg 72%
    19:00 +14°C° 0.3 mm 3 mps 757 mmHg 76%
    20:00 +14°C° 0.3 mm 2 mps 758 mmHg 80%
    21:00 +14°C° 0.3 mm 2 mps 758 mmHg 83%
    22:00 +13°C° 0 mm 2 mps 758 mmHg 85%
    23:00 +13°C° 0 mm 1 mps 758 mmHg 86%

    Day after tomorrow, 20 February, Wednesday

    Time Temperature Precipitation Wind Pressure Humidity
    00:00 +12°C° 0 mm 1 mps 758 mmHg 87%
    01:00 +12°C° 0 mm 1 mps 758 mmHg 88%
    02:00 +12°C° 0 mm 1 mps 758 mmHg 89%
    03:00 +11°C° 0 mm 1 mps 758 mmHg 89%
    04:00 +11°C° 0 mm 1 mps 758 mmHg 90%
    05:00 +10°C° 0 mm 2 mps 758 mmHg 91%
    06:00 +9°C° 0 mm 2 mps 758 mmHg 91%
    07:00 +10°C° 0 mm 2 mps 759 mmHg 88%
    08:00 +12°C° 0 mm 2 mps 759 mmHg 85%
    09:00 +13°C° 0 mm 2 mps 760 mmHg 81%
    10:00 +15°C° 0 mm 2 mps 760 mmHg 74%
    11:00 +16°C° 0 mm 2 mps 760 mmHg 68%
    12:00 +18°C° 0 mm 2 mps 760 mmHg 61%
    13:00 +18°C° 0 mm 2 mps 759 mmHg 57%
    14:00 +20°C° 0 mm 1 mps 759 mmHg 53%
    15:00 +21°C° 0 mm 1 mps 759 mmHg 49%
    16:00 +19°C° 0 mm 1 mps 759 mmHg 54%
    17:00 +18°C° 0 mm 1 mps 759 mmHg 59%
    18:00 +16°C° 0 mm 1 mps 759 mmHg 63%
    19:00 +15°C° 0 mm 1 mps 759 mmHg 67%
    20:00 +14°C° 0 mm 1 mps 760 mmHg 71%
    21:00 +13°C° 0 mm 1 mps 760 mmHg 75%
    22:00 +13°C° 0 mm 1 mps 760 mmHg 76%
    23:00 +12°C° 0 mm 1 mps 760 mmHg 77%

    21 February, Thursday

    Time Temperature Precipitation Wind Pressure Humidity
    00:00 +12°C° 0 mm 1 mps 760 mmHg 78%
    01:00 +10°C° 0 mm 2 mps 760 mmHg 79%
    02:00 +10°C° 0 mm 2 mps 760 mmHg 79%
    03:00 +10°C° 0 mm 3 mps 760 mmHg 79%
    04:00 +9°C° 0 mm 3 mps 760 mmHg 79%
    05:00 +9°C° 0 mm 3 mps 760 mmHg 78%
    06:00 +8°C° 0 mm 3 mps 760 mmHg 78%
    07:00 +8°C° 0 mm 4 mps 761 mmHg 75%
    08:00 +10°C° 0 mm 4 mps 761 mmHg 72%
    09:00 +11°C° 0 mm 4 mps 762 mmHg 69%
    10:00 +13°C° 0 mm 4 mps 762 mmHg 61%
    11:00 +15°C° 0 mm 4 mps 762 mmHg 53%
    12:00 +18°C° 0 mm 4 mps 762 mmHg 45%
    13:00 +19°C° 0 mm 3 mps 762 mmHg 42%
    14:00 +19°C° 0 mm 3 mps 762 mmHg 38%
    15:00 +20°C° 0 mm 3 mps 762 mmHg 35%
    16:00 +19°C° 0 mm 2 mps 762 mmHg 41%
    17:00 +17°C° 0 mm 2 mps 762 mmHg 48%
    18:00 +16°C° 0 mm 2 mps 762 mmHg 54%
    19:00 +15°C° 0 mm 2 mps 763 mmHg 58%
    20:00 +13°C° 0 mm 3 mps 763 mmHg 61%
    21:00 +12°C° 0 mm 3 mps 764 mmHg 65%
    22:00 +11°C° 0 mm 3 mps 764 mmHg 65%
    23:00 +11°C° 0 mm 3 mps 764 mmHg 65%

    22 February, Friday

    Time Temperature Precipitation Wind Pressure Humidity
    00:00 +10°C° 0 mm 3 mps 764 mmHg 65%
    01:00 +10°C° 0 mm 3 mps 764 mmHg 65%
    02:00 +9°C° 0 mm 3 mps 764 mmHg 64%
    03:00 +8°C° 0 mm 3 mps 764 mmHg 64%
    04:00 +7°C° 0 mm 4 mps 764 mmHg 65%
    05:00 +7°C° 0 mm 4 mps 764 mmHg 67%
    06:00 +6°C° 0 mm 4 mps 764 mmHg 69%
    07:00 +8°C° 0 mm 5 mps 764 mmHg 68%
    08:00 +9°C° 0 mm 5 mps 764 mmHg 68%
    09:00 +10°C° 0 mm 5 mps 765 mmHg 68%
    10:00 +13°C° 0 mm 5 mps 765 mmHg 60%
    11:00 +15°C° 0 mm 4 mps 765 mmHg 52%
    12:00 +18°C° 0 mm 4 mps 765 mmHg 45%
    13:00 +19°C° 0 mm 4 mps 764 mmHg 41%
    14:00 +20°C° 0 mm 3 mps 764 mmHg 38%
    15:00 +21°C° 0 mm 3 mps 763 mmHg 35%
    16:00 +19°C° 0 mm 2 mps 763 mmHg 40%
    17:00 +19°C° 0 mm 1 mps 763 mmHg 46%
    18:00 +16°C° 0 mm 1 mps 763 mmHg 51%
    19:00 +15°C° 0 mm 1 mps 764 mmHg 55%
    20:00 +14°C° 0 mm 1 mps 764 mmHg 59%
    21:00 +12°C° 0 mm 1 mps 764 mmHg 64%
    22:00 +12°C° 0 mm 1 mps 764 mmHg 63%
    23:00 +11°C° 0 mm 1 mps 764 mmHg 62%

    23 February, Saturday

    Time Temperature Precipitation Wind Pressure Humidity
    00:00 +10°C° 0 mm 2 mps 764 mmHg 62%
    01:00 +9°C° 0 mm 2 mps 764 mmHg 60%
    02:00 +9°C° 0 mm 2 mps 764 mmHg 58%
    03:00 +8°C° 0 mm 2 mps 764 mmHg 56%
    04:00 +8°C° 0 mm 2 mps 764 mmHg 55%
    05:00 +8°C° 0 mm 3 mps 764 mmHg 54%
    06:00 +7°C° 0 mm 3 mps 764 mmHg 53%
    07:00 +9°C° 0 mm 3 mps 765 mmHg 54%
    08:00 +10°C° 0 mm 3 mps 765 mmHg 55%
    09:00 +11°C° 0 mm 3 mps 766 mmHg 56%
    10:00 +13°C° 0 mm 3 mps 766 mmHg 50%
    11:00 +17°C° 0 mm 3 mps 766 mmHg 43%
    12:00 +19°C° 0 mm 3 mps 766 mmHg 37%
    13:00 +20°C° 0 mm 3 mps 766 mmHg 34%
    14:00 +21°C° 0 mm 2 mps 765 mmHg 32%
    15:00 +23°C° 0 mm 2 mps 765 mmHg 29%
    16:00 +20°C° 0 mm 2 mps 765 mmHg 34%
    17:00 +19°C° 0 mm 1 mps 765 mmHg 40%
    18:00 +16°C° 0 mm 1 mps 765 mmHg 45%
    19:00 +16°C° 0 mm 1 mps 766 mmHg 46%
    20:00 +15°C° 0 mm 1 mps 766 mmHg 48%
    21:00 +14°C° 0 mm 2 mps 767 mmHg 49%
    22:00 +13°C° 0 mm 2 mps 767 mmHg 50%
    23:00 +13°C° 0 mm 2 mps 767 mmHg 52%
    Show more